{"data":{"norad_id":63402,"intl_designator":"2025-065D","name":"STARLINK-33668","alt_names":[],"object_type":"PAYLOAD","status":"ACTIVE","operator":null,"country":"US","launch_date":"2025-03-31","launch_site_code":"AFETR","launch_vehicle":null,"mission":null,"orbit_class":"UNKNOWN","rcs_meters":null,"size_class":null,"mass_kg":null,"dimensions":null,"purposes":["comms"],"wikipedia_slug":null,"has_3d_model":false,"image_url":null,"decayed_at":null,"tle_current":{"epoch":"2026-09-20T21:36:37.214208Z","epoch_age_seconds":124209,"freshness":"FRESH","line1":"1 63402U 25065D   26263.90043072  .00010918  00000+0  40565-3 0  9998","line2":"2 63402  43.0035  84.7414 0002211 254.5891 105.4716 15.27584033 82697","mean_motion":15.27584033,"eccentricity":0.0002211,"inclination_deg":43.0035,"raan_deg":84.7414,"arg_perigee_deg":254.5891,"mean_anomaly_deg":105.4716,"bstar":0.00040565,"rev_number":8269,"period_min":94.266499838441,"perigee_km":481.52001423758,"apogee_km":484.55402538914,"semimajor_km":6861.1740198134,"source":"CELESTRAK","updated_at":"2026-09-21T09:00:34.978310Z"}}}